Location: C�mpuri de-Sus
(45.9500°N, 22.5500°E)
Time: 06:35:16
(UTC+00:00)

Cosmos 839 Rocket - Pass Details

Date: 06 December 2023
Orbit: 960 x 2092 km, 65.9° (Epoch: 04 March)

Event Time Altitude Azimuth Distance (km) Brightness Sun altitude
Exits shadow 02:11:52 78° 270° (W) 2,133 5.4 -38.1°
Maximum altitude 02:12:33 80° 306° (NW) 2,119 5.4 -37.9°
Drops below altitude 10° 02:24:29 10° 35° (NE) 4,387 7.7 -35.9°
Sets 02:27:41 0° 37° (NE) 5,286 8.3 -35.3°
